Location: Guferjoch
(46.7462°N, 8.4506°E)
Time: 13:08:37
(UTC+00:00)

Gbstr 26 Del rocket - Pass Details

Date: 14 July 2020
Orbit: 492 x 1264 km, 51.8° (Epoch: 06 August)

Event Time Altitude Azimuth Distance (km) Brightness Sun altitude
Rises 01:38:07 0° 296° (WNW) 2,664 6.3 -15.9°
Reaches altitude 10° 01:40:10 10° 297° (WNW) 1,830 5.4 -15.8°
Maximum altitude 01:44:17 84° 24° (NNE) 624 3.1 -15.4°
Drops below altitude 10° 01:49:15 10° 115° (ESE) 2,192 6.0 -14.9°
Sets 01:51:54 0° 116° (ESE) 3,244 6.8 -14.7°
